Weather History for KSEP - May, 2013

Change the Weather History Date:

Tuesday, May 28, 2013

  Actual Average Record
Temperature  
Mean Temperature 76 °F -  
Max Temperature 84 °F 84 °F 96 °F (1981)
Min Temperature 69 °F 62 °F 50 °F (1961)
Cooling Degree Days 12    
Growing Degree Days 26 (Base 50)    
Moisture  
Dew Point 64 °F    
Average Humidity 67    
Maximum Humidity 83    
Minimum Humidity 51    
Precipitation  
Precipitation 0.00 in - - ()
Sea Level Pressure  
Sea Level Pressure 29.85 in    
Wind  
Wind Speed 13 mph (SSE)    
Max Wind Speed 28 mph    
Max Gust Speed 43 mph    
Visibility 10 miles    
Events      
Averages and records for this station are not official NWS values.
T = Trace of Precipitation, MM = Missing Value Source: NWS Daily Summary

Daily Weather History Graph

Daily Weather History Graph

Search for Another Location

Airport or City:

Trip Planner

Search our weather history database for the weather conditions in past years. The results will help you decide how hot, cold, wet, or windy it might be!

Date:

Astronomy

May. 28, 2013 Rise Set
Actual Time 6:28 AM CDT 8:32 PM CDT
Civil Twilight 6:00 AM CDT 9:00 PM CDT
Nautical Twilight 5:26 AM CDT 9:33 PM CDT
Astronomical Twilight 4:50 AM CDT 10:10 PM CDT
Moon No Moon Rise 10:12 AM CDT (5/28)
Length of Visible Light 14h 59m
Length of Day
14h 04m
Waning Gibbous, 82% of the Moon is Illuminated
May 28
Waning Gibbous
May 31
Last Quarter
Jun 8
New
Jun 16
First Quarter
Jun 23
Full

Hourly Weather History & Observations

Time (CDT) Temp. Heat Index Dew Point Humidity Pressure Visibility Wind Dir Wind Speed Gust Speed Precip Events Conditions
12:15 AM 75.2 °F - 68.0 °F 78% 29.89 in 10.0 mi South 12.7 mph 18.4 mph N/A   Clear
12:35 AM 75.2 °F - 68.0 °F 78% 29.89 in 10.0 mi South 13.8 mph 20.7 mph N/A   Clear
12:55 AM 73.4 °F - 68.0 °F 83% 29.89 in 10.0 mi South 10.4 mph - N/A   Clear
1:15 AM 73.4 °F - 68.0 °F 83% 29.88 in 10.0 mi South 10.4 mph - N/A   Clear
1:35 AM 73.4 °F - 66.2 °F 78% 29.88 in 10.0 mi South 11.5 mph 18.4 mph N/A   Clear
1:55 AM 73.4 °F - 68.0 °F 83% 29.87 in 10.0 mi SSE 15.0 mph - N/A   Clear
2:15 AM 73.4 °F - 66.2 °F 78% 29.86 in 10.0 mi South 15.0 mph - N/A   Clear
2:35 AM 71.6 °F - 66.2 °F 83% 29.86 in 10.0 mi South 11.5 mph 16.1 mph N/A   Clear
2:55 AM 71.6 °F - 66.2 °F 83% 29.85 in 10.0 mi South 13.8 mph 18.4 mph N/A   Clear
3:15 AM 71.6 °F - 64.4 °F 78% 29.85 in 10.0 mi South 12.7 mph 19.6 mph N/A   Scattered Clouds
3:35 AM 71.6 °F - 64.4 °F 78% 29.85 in 10.0 mi South 12.7 mph 19.6 mph N/A   Clear
3:55 AM 71.6 °F - 64.4 °F 78% 29.84 in 10.0 mi South 11.5 mph 19.6 mph N/A   Clear
4:15 AM 69.8 °F - 64.4 °F 83% 29.84 in 10.0 mi South 12.7 mph 19.6 mph N/A   Scattered Clouds
4:35 AM 69.8 °F - 64.4 °F 83% 29.84 in 10.0 mi South 12.7 mph - N/A   Clear
4:55 AM 69.8 °F - 64.4 °F 83% 29.85 in 10.0 mi South 11.5 mph 18.4 mph N/A   Clear
5:15 AM 69.8 °F - 64.4 °F 83% 29.84 in 10.0 mi South 12.7 mph 18.4 mph N/A   Clear
5:35 AM 69.8 °F - 64.4 °F 83% 29.85 in 10.0 mi South 15.0 mph 18.4 mph N/A   Clear
5:55 AM 69.8 °F - 64.4 °F 83% 29.85 in 10.0 mi South 10.4 mph 17.3 mph N/A   Scattered Clouds
6:15 AM 69.8 °F - 62.6 °F 78% 29.86 in 10.0 mi South 12.7 mph 18.4 mph N/A   Scattered Clouds
6:35 AM 69.8 °F - 62.6 °F 78% 29.86 in 10.0 mi South 11.5 mph 16.1 mph N/A   Scattered Clouds
6:55 AM 69.8 °F - 62.6 °F 78% 29.86 in 10.0 mi South 10.4 mph 16.1 mph N/A   Scattered Clouds
7:15 AM 69.8 °F - 62.6 °F 78% 29.87 in 10.0 mi South 11.5 mph 18.4 mph N/A   Scattered Clouds
7:35 AM 69.8 °F - 62.6 °F 78% 29.88 in 10.0 mi South 11.5 mph 17.3 mph N/A   Mostly Cloudy
7:55 AM 69.8 °F - 62.6 °F 78% 29.88 in 10.0 mi South 10.4 mph 19.6 mph N/A   Mostly Cloudy
8:15 AM 69.8 °F - 64.4 °F 83% 29.88 in 10.0 mi South 11.5 mph 18.4 mph N/A   Mostly Cloudy
8:35 AM 71.6 °F - 64.4 °F 78% 29.88 in 10.0 mi South 10.4 mph 19.6 mph N/A   Mostly Cloudy
8:55 AM 71.6 °F - 62.6 °F 73% 29.89 in 10.0 mi South 12.7 mph 24.2 mph N/A   Scattered Clouds
9:15 AM 71.6 °F - 62.6 °F 73% 29.90 in 10.0 mi South 12.7 mph 19.6 mph N/A   Mostly Cloudy
9:35 AM 73.4 °F - 62.6 °F 69% 29.90 in 10.0 mi South 12.7 mph 20.7 mph N/A   Scattered Clouds
9:55 AM 73.4 °F - 62.6 °F 69% 29.90 in 10.0 mi South 15.0 mph 25.3 mph N/A   Scattered Clouds
10:15 AM 73.4 °F - 62.6 °F 69% 29.91 in 10.0 mi South 17.3 mph 24.2 mph N/A   Mostly Cloudy
10:35 AM 73.4 °F - 62.6 °F 69% 29.91 in 10.0 mi South 19.6 mph 24.2 mph N/A   Mostly Cloudy
10:55 AM 75.2 °F - 62.6 °F 65% 29.92 in 10.0 mi South 18.4 mph 28.8 mph N/A   Mostly Cloudy
11:15 AM 75.2 °F - 62.6 °F 65% 29.92 in 10.0 mi South 12.7 mph 20.7 mph N/A   Mostly Cloudy
11:35 AM 77.0 °F - 62.6 °F 61% 29.91 in 10.0 mi South 15.0 mph 24.2 mph N/A   Scattered Clouds
11:55 AM 77.0 °F - 62.6 °F 61% 29.91 in 10.0 mi South 12.7 mph 21.9 mph N/A   Scattered Clouds
12:15 PM 77.0 °F - 64.4 °F 65% 29.90 in 10.0 mi South 13.8 mph 20.7 mph N/A   Clear
12:35 PM 78.8 °F - 62.6 °F 57% 29.90 in 10.0 mi South 13.8 mph 23.0 mph N/A   Clear
12:55 PM 78.8 °F - 62.6 °F 57% 29.88 in 10.0 mi South 12.7 mph 21.9 mph N/A   Scattered Clouds
1:15 PM 78.8 °F - 62.6 °F 57% 29.89 in 10.0 mi South 15.0 mph 20.7 mph N/A   Mostly Cloudy
1:35 PM 78.8 °F - 62.6 °F 57% 29.90 in 10.0 mi South 16.1 mph 20.7 mph N/A   Mostly Cloudy
1:55 PM 78.8 °F - 62.6 °F 57% 29.89 in 10.0 mi South 9.2 mph - N/A   Mostly Cloudy
2:15 PM 80.6 °F 81.8 °F 62.6 °F 54% 29.89 in 10.0 mi South 12.7 mph - N/A   Mostly Cloudy
2:35 PM 80.6 °F 82.3 °F 64.4 °F 58% 29.88 in 10.0 mi South 15.0 mph - N/A   Mostly Cloudy
2:55 PM 82.4 °F 83.9 °F 64.4 °F 54% 29.87 in 10.0 mi South 15.0 mph 20.7 mph N/A   Scattered Clouds
3:15 PM 82.4 °F 83.9 °F 64.4 °F 54% 29.87 in 10.0 mi South 15.0 mph 20.7 mph N/A   Scattered Clouds
3:35 PM 82.4 °F 83.9 °F 64.4 °F 54% 29.87 in 10.0 mi South 16.1 mph 21.9 mph N/A   Scattered Clouds
3:55 PM 82.4 °F 83.9 °F 64.4 °F 54% 29.87 in 10.0 mi South 12.7 mph 18.4 mph N/A   Mostly Cloudy
4:15 PM 80.6 °F 82.3 °F 64.4 °F 58% 29.86 in 10.0 mi South 9.2 mph 16.1 mph N/A   Mostly Cloudy
4:35 PM 82.4 °F 83.9 °F 64.4 °F 54% 29.85 in 10.0 mi SSE 10.4 mph - N/A   Scattered Clouds
4:55 PM 82.4 °F 83.9 °F 64.4 °F 54% 29.82 in 10.0 mi SE 13.8 mph 17.3 mph N/A   Clear
5:15 PM 82.4 °F 83.9 °F 64.4 °F 54% 29.82 in 10.0 mi SE 13.8 mph 19.6 mph N/A   Clear
5:35 PM 82.4 °F 83.9 °F 64.4 °F 54% 29.81 in 10.0 mi SE 10.4 mph 18.4 mph N/A   Clear
5:55 PM 80.6 °F 82.3 °F 64.4 °F 58% 29.81 in 10.0 mi SSE 12.7 mph 19.6 mph N/A   Clear
6:15 PM 82.4 °F 83.9 °F 64.4 °F 54% 29.80 in 10.0 mi SSE 10.4 mph 17.3 mph N/A   Clear
6:35 PM 82.4 °F 83.9 °F 64.4 °F 54% 29.80 in 10.0 mi SSE 13.8 mph 18.4 mph N/A   Clear
6:55 PM 84.2 °F 85.6 °F 64.4 °F 51% 29.81 in 10.0 mi SSE 10.4 mph 23.0 mph N/A   Clear
7:15 PM 82.4 °F 83.9 °F 64.4 °F 54% 29.81 in 10.0 mi SSE 10.4 mph - N/A   Clear
7:35 PM 82.4 °F 83.9 °F 64.4 °F 54% 29.82 in 10.0 mi SSE 6.9 mph - N/A   Clear
7:55 PM 80.6 °F 82.3 °F 64.4 °F 58% 29.83 in 10.0 mi SSE 5.8 mph - N/A   Clear
8:15 PM 80.6 °F 82.3 °F 64.4 °F 58% 29.84 in 10.0 mi South 6.9 mph - N/A   Scattered Clouds
8:35 PM 80.6 °F 82.3 °F 64.4 °F 58% 29.84 in 10.0 mi South 6.9 mph - N/A   Scattered Clouds
8:55 PM 78.8 °F - 64.4 °F 61% 29.85 in 10.0 mi SSE 5.8 mph - N/A   Mostly Cloudy
9:15 PM 78.8 °F - 64.4 °F 61% 29.83 in 10.0 mi SSE 9.2 mph - N/A   Scattered Clouds
9:35 PM 78.8 °F - 64.4 °F 61% 29.82 in 10.0 mi SE 11.5 mph - N/A   Clear
9:55 PM 78.8 °F - 64.4 °F 61% 29.81 in 10.0 mi SSE 13.8 mph 19.6 mph N/A   Clear
10:15 PM 78.8 °F - 64.4 °F 61% 29.80 in 10.0 mi SSE 16.1 mph 21.9 mph N/A   Clear
10:35 PM 78.8 °F - 64.4 °F 61% 29.80 in 10.0 mi SSE 16.1 mph 25.3 mph N/A   Clear
10:55 PM 78.8 °F - 64.4 °F 61% 29.77 in 10.0 mi SSE 24.2 mph 32.2 mph N/A   Clear
11:15 PM 77.0 °F - 64.4 °F 65% 29.75 in 10.0 mi SSE 25.3 mph 36.8 mph N/A   Clear
11:35 PM 77.0 °F - 64.4 °F 65% 29.72 in 10.0 mi SSE 27.6 mph 42.6 mph N/A   Clear
11:55 PM 77.0 °F - 64.4 °F 65% 29.75 in 10.0 mi SSE 25.3 mph 34.5 mph N/A   Clear